| time (UTC) | temp F | wind direction | speed MPH | gust MPH | rain 1hr in | rain 24hr in | rain mn in | humidity % | barometer mb |
| 20260903231030 | 91 | 132 | 11.0 | 17.0 | 0.00 | 0.00 | 0.00 | 64 | 1011.4 |
| 20260903230527 | 90 | 150 | 8.0 | 17.0 | 0.00 | 0.00 | 0.00 | 65 | 1011.4 |
| 20260903230029 | 90 | 155 | 7.0 | 17.0 | 0.00 | 0.00 | 0.00 | 64 | 1011.4 |
| 20260903225528 | 91 | 187 | 8.0 | 14.0 | 0.00 | 0.00 | 0.00 | 63 | 1011.4 |
| 20260903225027 | 91 | 169 | 9.0 | 12.0 | 0.00 | 0.00 | 0.00 | 63 | 1011.4 |
| 20260903224526 | 91 | 206 | 3.0 | 13.0 | 0.00 | 0.00 | 0.00 | 63 | 1011.4 |
| 20260903224026 | 91 | 157 | 7.0 | 15.0 | 0.00 | 0.00 | 0.00 | 62 | 1011.5 |
| 20260903223527 | 91 | 167 | 5.0 | 15.0 | 0.00 | 0.00 | 0.00 | 63 | 1011.5 |
| 20260903223027 | 91 | 143 | 5.0 | 14.0 | 0.00 | 0.00 | 0.00 | 63 | 1011.4 |
| 20260903222525 | 91 | 205 | 4.0 | 14.0 | 0.00 | 0.00 | 0.00 | 63 | 1011.4 |
| 20260903222026 | 91 | 134 | 9.0 | 16.0 | 0.00 | 0.00 | 0.00 | 62 | 1011.5 |
| 20260903221525 | 91 | 127 | 10.0 | 16.0 | 0.00 | 0.00 | 0.00 | 64 | 1011.5 |
| 20260903221025 | 91 | 167 | 10.0 | 16.0 | 0.00 | 0.00 | 0.00 | 63 | 1011.4 |
| 20260903220524 | 91 | 130 | 5.0 | 16.0 | 0.00 | 0.00 | 0.00 | 63 | 1011.5 |
| 20260903220024 | 91 | 190 | 12.0 | 14.0 | 0.00 | 0.00 | 0.00 | 64 | 1011.5 |
| 20260903215523 | 91 | 134 | 9.0 | 16.0 | 0.00 | 0.00 | 0.00 | 64 | 1011.5 |
| 20260903215029 | 91 | 107 | 6.0 | 17.0 | 0.00 | 0.00 | 0.00 | 64 | 1011.6 |
| 20260903214524 | 91 | 153 | 10.0 | 17.0 | 0.00 | 0.00 | 0.00 | 65 | 1011.6 |
| 20260903214023 | 91 | 188 | 8.0 | 13.0 | 0.00 | 0.00 | 0.00 | 64 | 1011.6 |
| 20260903213523 | 91 | 209 | 7.0 | 13.0 | 0.00 | 0.00 | 0.00 | 65 | 1011.6 |
| 20260903213024 | 91 | 223 | 8.0 | 16.0 | 0.00 | 0.00 | 0.00 | 65 | 1011.6 |
| 20260903212522 | 90 | 224 | 5.0 | 16.0 | 0.00 | 0.00 | 0.00 | 66 | 1011.8 |
| 20260903212023 | 91 | 150 | 12.0 | 13.0 | 0.00 | 0.00 | 0.00 | 65 | 1011.8 |
| 20260903211524 | 91 | 135 | 9.0 | 13.0 | 0.00 | 0.00 | 0.00 | 65 | 1011.8 |
| 20260903211023 | 91 | 198 | 8.0 | 14.0 | 0.00 | 0.00 | 0.00 | 65 | 1011.8 |
| 20260903210524 | 90 | 120 | 8.0 | 16.0 | 0.00 | 0.00 | 0.00 | 66 | 1012.0 |
| 20260903210025 | 90 | 179 | 5.0 | 16.0 | 0.00 | 0.00 | 0.00 | 66 | 1012.1 |
| 20260903205521 | 90 | 140 | 5.0 | 15.0 | 0.00 | 0.00 | 0.00 | 66 | 1012.1 |
| 20260903205021 | 91 | 132 | 10.0 | 15.0 | 0.00 | 0.00 | 0.00 | 66 | 1012.2 |
| 20260903204520 | 91 | 169 | 7.0 | 14.0 | 0.00 | 0.00 | 0.00 | 66 | 1012.2 |
| 20260903204018 | 91 | 146 | 4.0 | 14.0 | 0.00 | 0.00 | 0.00 | 67 | 1012.3 |
| 20260903203519 | 90 | 207 | 6.0 | 16.0 | 0.00 | 0.00 | 0.00 | 67 | 1012.3 |
| 20260903203019 | 90 | 144 | 8.0 | 16.0 | 0.00 | 0.00 | 0.00 | 68 | 1012.4 |
| 20260903202518 | 90 | 196 | 9.0 | 16.0 | 0.00 | 0.00 | 0.00 | 68 | 1012.5 |
| 20260903202018 | 90 | 150 | 10.0 | 16.0 | 0.00 | 0.00 | 0.00 | 68 | 1012.5 |
| 20260903201517 | 90 | 148 | 8.0 | 14.0 | 0.00 | 0.00 | 0.00 | 68 | 1012.6 |
| 20260903201017 | 90 | 201 | 6.0 | 17.0 | 0.00 | 0.00 | 0.00 | 68 | 1012.6 |
| 20260903200517 | 90 | 173 | 7.0 | 17.0 | 0.00 | 0.00 | 0.00 | 67 | 1012.6 |
| 20260903200019 | 90 | 182 | 9.0 | 17.0 | 0.00 | 0.00 | 0.00 | 68 | 1012.6 |
| 20260903195517 | 89 | 228 | 9.0 | 20.0 | 0.00 | 0.00 | 0.00 | 70 | 1012.6 |
| 20260903195014 | 89 | 157 | 10.0 | 20.0 | 0.00 | 0.00 | 0.00 | 70 | 1012.6 |
| 20260903194515 | 89 | 172 | 9.0 | 16.0 | 0.00 | 0.00 | 0.00 | 70 | 1012.6 |
| 20260903194015 | 89 | 209 | 9.0 | 20.0 | 0.00 | 0.00 | 0.00 | 70 | 1012.8 |
| 20260903193513 | 88 | 111 | 12.0 | 20.0 | 0.00 | 0.00 | 0.00 | 70 | 1012.9 |
| 20260903193019 | 88 | 162 | 8.0 | 18.0 | 0.00 | 0.00 | 0.00 | 71 | 1013.0 |
| 20260903192514 | 88 | 171 | 8.0 | 19.0 | 0.00 | 0.00 | 0.00 | 71 | 1012.9 |
| 20260903192013 | 88 | 138 | 10.0 | 19.0 | 0.00 | 0.00 | 0.00 | 71 | 1013.1 |
| 20260903191512 | 89 | 136 | 14.0 | 18.0 | 0.00 | 0.00 | 0.00 | 71 | 1013.2 |
| 20260903191014 | 89 | 216 | 13.0 | 17.0 | 0.00 | 0.00 | 0.00 | 70 | 1013.2 |
| 20260903190514 | 89 | 142 | 12.0 | 18.0 | 0.00 | 0.00 | 0.00 | 71 | 1013.3 |
| 20260903190013 | 88 | 154 | 9.0 | 18.0 | 0.00 | 0.00 | 0.00 | 71 | 1013.4 |
| 20260903185512 | 88 | 181 | 8.0 | 18.0 | 0.00 | 0.00 | 0.00 | 70 | 1013.5 |
| 20260903185014 | 89 | 153 | 9.0 | 21.0 | 0.00 | 0.00 | 0.00 | 69 | 1013.6 |
| 20260903184511 | 89 | 165 | 9.0 | 21.0 | 0.00 | 0.00 | 0.00 | 70 | 1013.6 |
| 20260903184012 | 89 | 178 | 5.0 | 20.0 | 0.00 | 0.00 | 0.00 | 70 | 1013.6 |
| 20260903183514 | 88 | 143 | 11.0 | 20.0 | 0.00 | 0.00 | 0.00 | 70 | 1013.6 |
| 20260903183014 | 89 | 159 | 9.0 | 18.0 | 0.00 | 0.00 | 0.00 | 70 | 1013.9 |
| 20260903182514 | 88 | 180 | 8.0 | 16.0 | 0.00 | 0.00 | 0.00 | 71 | 1013.7 |
| 20260903182010 | 88 | 144 | 10.0 | 17.0 | 0.00 | 0.00 | 0.00 | 71 | 1013.9 |
| 20260903181510 | 88 | 138 | 9.0 | 19.0 | 0.00 | 0.00 | 0.00 | 72 | 1013.9 |
| 20260903181013 | 88 | 161 | 8.0 | 19.0 | 0.00 | 0.00 | 0.00 | 71 | 1013.9 |
| 20260903180510 | 88 | 165 | 6.0 | 17.0 | 0.00 | 0.00 | 0.00 | 71 | 1013.9 |
| 20260903180013 | 88 | 161 | 9.0 | 17.0 | 0.00 | 0.00 | 0.00 | 71 | 1014.0 |
| 20260903175512 | 88 | 140 | 10.0 | 16.0 | 0.00 | 0.00 | 0.00 | 71 | 1014.0 |
| 20260903175012 | 89 | 176 | 7.0 | 16.0 | 0.00 | 0.00 | 0.00 | 71 | 1014.0 |
| 20260903174615 | 89 | 182 | 6.0 | 15.0 | 0.00 | 0.00 | 0.00 | 70 | 1014.1 |
| 20260903174113 | 88 | 199 | 6.0 | 15.0 | 0.00 | 0.00 | 0.00 | 71 | 1014.2 |
| 20260903173614 | 88 | 204 | 8.0 | 15.0 | 0.00 | 0.00 | 0.00 | 71 | 1014.2 |
| 20260903173112 | 87 | 153 | 5.0 | 15.0 | 0.00 | 0.00 | 0.00 | 72 | 1014.4 |
| 20260903172612 | 87 | 206 | 7.0 | 15.0 | 0.00 | 0.00 | 0.00 | 73 | 1014.3 |
| 20260903172144 | 87 | 168 | 10.0 | 16.0 | 0.00 | 0.00 | 0.00 | 72 | 1014.5 |
| 20260903171644 | 87 | 142 | 6.0 | 16.0 | 0.00 | 0.00 | 0.00 | 73 | 1014.5 |
| 20260903171146 | 88 | 165 | 10.0 | 14.0 | 0.00 | 0.00 | 0.00 | 72 | 1014.4 |
| 20260903170642 | 87 | 221 | 6.0 | 15.0 | 0.00 | 0.00 | 0.00 | 74 | 1014.4 |
| 20260903170142 | 87 | 128 | 10.0 | 17.0 | 0.00 | 0.00 | 0.00 | 74 | 1014.6 |
| 20260903165642 | 86 | 184 | 12.0 | 17.0 | 0.00 | 0.00 | 0.00 | 74 | 1014.6 |
| 20260903165141 | 86 | 227 | 13.0 | 16.0 | 0.00 | 0.00 | 0.00 | 75 | 1014.5 |
| 20260903164642 | 86 | 240 | 13.0 | 16.0 | 0.00 | 0.00 | 0.00 | 75 | 1014.6 |
| 20260903164140 | 85 | 168 | 5.0 | 17.0 | 0.00 | 0.00 | 0.00 | 75 | 1014.5 |
| 20260903163639 | 85 | 209 | 8.0 | 17.0 | 0.00 | 0.00 | 0.00 | 76 | 1014.7 |
| 20260903163138 | 85 | 202 | 8.0 | 16.0 | 0.00 | 0.00 | 0.00 | 76 | 1014.6 |
| 20260903162639 | 85 | 149 | 12.0 | 15.0 | 0.00 | 0.00 | 0.00 | 76 | 1014.6 |
| 20260903162138 | 85 | 136 | 8.0 | 15.0 | 0.00 | 0.00 | 0.00 | 77 | 1014.5 |
| 20260903161638 | 84 | 139 | 9.0 | 13.0 | 0.00 | 0.00 | 0.00 | 78 | 1014.6 |
| 20260903161138 | 84 | 40 | 7.0 | 13.0 | 0.00 | 0.00 | 0.00 | 78 | 1014.7 |
| 20260903160637 | 83 | 52 | 6.0 | 15.0 | 0.00 | 0.00 | 0.00 | 79 | 1014.7 |
| 20260903160139 | 83 | 33 | 4.0 | 15.0 | 0.00 | 0.00 | 0.00 | 79 | 1014.8 |
| 20260903155638 | 83 | 34 | 10.0 | 14.0 | 0.00 | 0.00 | 0.00 | 79 | 1014.7 |
| 20260903155140 | 83 | 36 | 7.0 | 13.0 | 0.00 | 0.00 | 0.00 | 79 | 1014.7 |
| 20260903154637 | 83 | 151 | 9.0 | 13.0 | 0.00 | 0.00 | 0.00 | 78 | 1014.6 |
| 20260903154137 | 83 | 150 | 4.0 | 12.0 | 0.00 | 0.00 | 0.00 | 78 | 1014.6 |
| 20260903153636 | 83 | 221 | 5.0 | 14.0 | 0.00 | 0.00 | 0.00 | 79 | 1014.6 |
| 20260903153136 | 83 | 152 | 7.0 | 14.0 | 0.00 | 0.00 | 0.00 | 79 | 1014.6 |
| 20260903152635 | 82 | 177 | 6.0 | 10.0 | 0.00 | 0.00 | 0.00 | 80 | 1014.5 |
| 20260903152136 | 82 | 181 | 5.0 | 12.0 | 0.00 | 0.00 | 0.00 | 81 | 1014.4 |
| 20260903151636 | 82 | 170 | 6.0 | 12.0 | 0.00 | 0.00 | 0.00 | 80 | 1014.4 |
| 20260903151135 | 82 | 127 | 5.0 | 14.0 | 0.00 | 0.00 | 0.00 | 80 | 1014.6 |
| 20260903150635 | 81 | 41 | 3.0 | 14.0 | 0.00 | 0.00 | 0.00 | 81 | 1014.6 |
| 20260903150136 | 81 | 54 | 7.0 | 10.0 | 0.00 | 0.00 | 0.00 | 82 | 1014.7 |
| 20260903145633 | 80 | 34 | 5.0 | 14.0 | 0.00 | 0.00 | 0.00 | 82 | 1014.8 |
| 20260903145133 | 80 | 132 | 5.0 | 14.0 | 0.00 | 0.00 | 0.00 | 82 | 1014.9 |
| 20260903144632 | 80 | 195 | 6.0 | 14.0 | 0.00 | 0.00 | 0.00 | 82 | 1014.9 |
| 20260903144132 | 80 | 199 | 7.0 | 11.0 | 0.00 | 0.00 | 0.00 | 82 | 1014.9 |
| 20260903143632 | 80 | 132 | 11.0 | 11.0 | 0.00 | 0.00 | 0.00 | 82 | 1015.0 |
| 20260903143131 | 80 | 143 | 9.0 | 11.0 | 0.00 | 0.00 | 0.00 | 83 | 1014.9 |
| 20260903142631 | 79 | 146 | 3.0 | 11.0 | 0.00 | 0.00 | 0.00 | 83 | 1014.8 |
| 20260903142131 | 79 | 173 | 3.0 | 11.0 | 0.00 | 0.00 | 0.00 | 83 | 1014.7 |
| 20260903141632 | 79 | 123 | 4.0 | 8.0 | 0.00 | 0.00 | 0.00 | 83 | 1014.7 |
| 20260903141129 | 79 | 176 | 4.0 | 10.0 | 0.00 | 0.00 | 0.00 | 83 | 1014.7 |
| 20260903140629 | 79 | 167 | 4.0 | 10.0 | 0.00 | 0.00 | 0.00 | 83 | 1014.6 |
| 20260903140131 | 79 | 143 | 4.0 | 8.0 | 0.00 | 0.00 | 0.00 | 83 | 1014.6 |
| 20260903135628 | 79 | 149 | 4.0 | 8.0 | 0.00 | 0.00 | 0.00 | 84 | 1014.6 |
| 20260903135130 | 78 | 167 | 5.0 | 8.0 | 0.00 | 0.00 | 0.00 | 84 | 1014.8 |
| 20260903134626 | 78 | 162 | 5.0 | 8.0 | 0.00 | 0.00 | 0.00 | 84 | 1014.7 |
| 20260903134128 | 78 | 160 | 5.0 | 6.0 | 0.00 | 0.00 | 0.00 | 84 | 1014.6 |
| 20260903133627 | 78 | 115 | 3.0 | 6.0 | 0.00 | 0.00 | 0.00 | 84 | 1014.6 |
| 20260903133127 | 78 | 107 | 2.0 | 6.0 | 0.00 | 0.00 | 0.00 | 84 | 1014.7 |
| 20260903132627 | 78 | 126 | 1.0 | 5.0 | 0.00 | 0.00 | 0.00 | 84 | 1014.4 |
| 20260903132128 | 78 | 140 | 2.0 | 4.0 | 0.00 | 0.00 | 0.00 | 84 | 1014.3 |
| 20260903131626 | 78 | 0 | 0.0 | 4.0 | 0.00 | 0.00 | 0.00 | 83 | 1014.3 |
| 20260903131125 | 78 | 142 | 2.0 | 4.0 | 0.00 | 0.00 | 0.00 | 83 | 1014.3 |
| 20260903130627 | 78 | 137 | 2.0 | 4.0 | 0.00 | 0.00 | 0.00 | 83 | 1014.3 |
| 20260903130125 | 78 | 130 | 2.0 | 3.0 | 0.00 | 0.00 | 0.00 | 83 | 1014.4 |
| 20260903125626 | 78 | 130 | 1.0 | 4.0 | 0.00 | 0.00 | 0.00 | 83 | 1014.4 |
| 20260903125124 | 77 | 128 | 1.0 | 4.0 | 0.00 | 0.00 | 0.00 | 83 | 1014.4 |
| 20260903124625 | 77 | 127 | 3.0 | 4.0 | 0.00 | 0.00 | 0.00 | 83 | 1014.4 |
| 20260903124124 | 77 | 126 | 1.0 | 6.0 | 0.00 | 0.00 | 0.00 | 83 | 1014.4 |
| 20260903123623 | 77 | 126 | 2.0 | 6.0 | 0.00 | 0.00 | 0.00 | 83 | 1014.3 |
| 20260903123124 | 77 | 125 | 2.0 | 3.0 | 0.00 | 0.00 | 0.00 | 83 | 1014.2 |
| 20260903122621 | 77 | 125 | 1.0 | 4.0 | 0.00 | 0.00 | 0.00 | 83 | 1014.1 |
| 20260903122123 | 77 | 125 | 3.0 | 4.0 | 0.00 | 0.00 | 0.00 | 83 | 1014.1 |
| 20260903121624 | 77 | 125 | 1.0 | 4.0 | 0.00 | 0.00 | 0.00 | 83 | 1014.0 |
| 20260903121123 | 77 | 125 | 1.0 | 4.0 | 0.00 | 0.00 | 0.00 | 83 | 1014.0 |
| 20260903120623 | 77 | 125 | 2.0 | 4.0 | 0.00 | 0.00 | 0.00 | 82 | 1014.1 |
| 20260903120123 | 77 | 124 | 2.0 | 3.0 | 0.00 | 0.00 | 0.00 | 82 | 1014.0 |
| 20260903115623 | 77 | 124 | 1.0 | 3.0 | 0.00 | 0.00 | 0.00 | 82 | 1014.0 |
| 20260903115123 | 77 | 124 | 2.0 | 4.0 | 0.00 | 0.00 | 0.00 | 82 | 1014.0 |
| 20260903114619 | 77 | 124 | 2.0 | 4.0 | 0.00 | 0.00 | 0.00 | 82 | 1014.1 |
| 20260903114119 | 77 | 124 | 2.0 | 6.0 | 0.00 | 0.00 | 0.00 | 82 | 1014.1 |
| 20260903113619 | 77 | 121 | 2.0 | 6.0 | 0.00 | 0.00 | 0.00 | 83 | 1014.1 |
| 20260903113120 | 77 | 115 | 2.0 | 4.0 | 0.00 | 0.00 | 0.00 | 83 | 1014.1 |
| 20260903112619 | 77 | 108 | 4.0 | 4.0 | 0.00 | 0.00 | 0.00 | 83 | 1014.1 |
| 20260903112119 | 77 | 107 | 1.0 | 4.0 | 0.00 | 0.00 | 0.00 | 83 | 1014.2 |
| 20260903111617 | 77 | 107 | 2.0 | 6.0 | 0.00 | 0.00 | 0.00 | 83 | 1014.1 |
| 20260903111118 | 77 | 105 | 2.0 | 6.0 | 0.00 | 0.00 | 0.00 | 83 | 1014.0 |
| 20260903110617 | 77 | 105 | 3.0 | 6.0 | 0.00 | 0.00 | 0.00 | 83 | 1013.9 |
| 20260903110116 | 77 | 101 | 3.0 | 4.0 | 0.00 | 0.00 | 0.00 | 83 | 1013.8 |
| 20260903105617 | 77 | 0 | 0.0 | 4.0 | 0.00 | 0.00 | 0.00 | 83 | 1013.9 |
| 20260903105116 | 77 | 99 | 2.0 | 4.0 | 0.00 | 0.00 | 0.00 | 83 | 1013.8 |
| 20260903104615 | 77 | 98 | 2.0 | 4.0 | 0.00 | 0.00 | 0.00 | 83 | 1013.7 |
| 20260903104116 | 77 | 98 | 2.0 | 3.0 | 0.00 | 0.00 | 0.00 | 83 | 1013.8 |
| 20260903103615 | 77 | 98 | 2.0 | 3.0 | 0.00 | 0.00 | 0.00 | 83 | 1013.9 |
| 20260903103115 | 77 | 98 | 1.0 | 3.0 | 0.00 | 0.00 | 0.00 | 83 | 1013.8 |
| 20260903102614 | 77 | 0 | 0.0 | 3.0 | 0.00 | 0.00 | 0.00 | 83 | 1013.9 |
| 20260903102113 | 77 | 98 | 1.0 | 3.0 | 0.00 | 0.00 | 0.00 | 83 | 1013.8 |
| 20260903101614 | 77 | 98 | 2.0 | 3.0 | 0.00 | 0.00 | 0.00 | 83 | 1013.8 |
| 20260903101113 | 77 | 98 | 1.0 | 3.0 | 0.00 | 0.00 | 0.00 | 83 | 1013.8 |
| 20260903100614 | 77 | 98 | 2.0 | 3.0 | 0.00 | 0.00 | 0.00 | 83 | 1013.7 |
| 20260903100113 | 77 | 98 | 1.0 | 3.0 | 0.00 | 0.00 | 0.00 | 83 | 1013.7 |
| 20260903095612 | 77 | 98 | 2.0 | 4.0 | 0.00 | 0.00 | 0.00 | 83 | 1013.7 |
| 20260903095112 | 77 | 98 | 2.0 | 4.0 | 0.00 | 0.00 | 0.00 | 82 | 1013.7 |
| 20260903094610 | 77 | 99 | 2.0 | 4.0 | 0.00 | 0.00 | 0.00 | 82 | 1013.6 |
| 20260903094114 | 77 | 98 | 2.0 | 4.0 | 0.00 | 0.00 | 0.00 | 82 | 1013.6 |
| 20260903093613 | 77 | 16 | 2.0 | 4.0 | 0.00 | 0.00 | 0.00 | 82 | 1013.9 |
| 20260903093112 | 77 | 16 | 3.0 | 3.0 | 0.00 | 0.00 | 0.00 | 82 | 1013.7 |
| 20260903092613 | 78 | 15 | 3.0 | 3.0 | 0.00 | 0.00 | 0.00 | 82 | 1013.7 |
| 20260903092109 | 78 | 15 | 2.0 | 3.0 | 0.00 | 0.00 | 0.00 | 81 | 1013.7 |
| 20260903091614 | 78 | 15 | 2.0 | 3.0 | 0.00 | 0.00 | 0.00 | 82 | 1013.8 |
| 20260903091114 | 78 | 0 | 0.0 | 2.0 | 0.00 | 0.00 | 0.00 | 81 | 1013.9 |
| 20260903090610 | 78 | 0 | 0.0 | 3.0 | 0.00 | 0.00 | 0.00 | 81 | 1013.9 |
| 20260903090115 | 78 | 15 | 1.0 | 3.0 | 0.00 | 0.00 | 0.00 | 81 | 1013.9 |
| 20260903085612 | 78 | 15 | 1.0 | 3.0 | 0.00 | 0.00 | 0.00 | 80 | 1013.9 |
| 20260903085112 | 78 | 15 | 1.0 | 3.0 | 0.00 | 0.00 | 0.00 | 80 | 1013.8 |
| 20260903084611 | 78 | 15 | 1.0 | 2.0 | 0.00 | 0.00 | 0.00 | 80 | 1013.8 |
| 20260903084113 | 78 | 15 | 1.0 | 2.0 | 0.00 | 0.00 | 0.00 | 80 | 1013.7 |
| 20260903083611 | 78 | 15 | 1.0 | 3.0 | 0.00 | 0.00 | 0.00 | 80 | 1013.8 |
| 20260903083113 | 78 | 15 | 2.0 | 3.0 | 0.00 | 0.00 | 0.00 | 80 | 1013.9 |
| 20260903082614 | 78 | 15 | 2.0 | 3.0 | 0.00 | 0.00 | 0.00 | 80 | 1013.7 |
| 20260903082113 | 78 | 15 | 1.0 | 3.0 | 0.00 | 0.00 | 0.00 | 80 | 1013.7 |
| 20260903081612 | 78 | 0 | 0.0 | 2.0 | 0.00 | 0.00 | 0.00 | 80 | 1013.8 |
| 20260903081111 | 78 | 15 | 1.0 | 4.0 | 0.00 | 0.00 | 0.00 | 80 | 1013.8 |
| 20260903080612 | 78 | 15 | 1.0 | 4.0 | 0.00 | 0.00 | 0.00 | 80 | 1013.7 |
| 20260903080111 | 78 | 15 | 2.0 | 4.0 | 0.00 | 0.00 | 0.00 | 80 | 1013.8 |
| 20260903075610 | 78 | 15 | 2.0 | 3.0 | 0.00 | 0.00 | 0.00 | 79 | 1013.7 |
| 20260903075113 | 79 | 16 | 1.0 | 3.0 | 0.00 | 0.00 | 0.00 | 79 | 1013.8 |
| 20260903074613 | 79 | 15 | 1.0 | 3.0 | 0.00 | 0.00 | 0.00 | 79 | 1013.8 |
| 20260903074114 | 79 | 16 | 2.0 | 4.0 | 0.00 | 0.00 | 0.00 | 79 | 1013.7 |
| 20260903073612 | 79 | 15 | 2.0 | 4.0 | 0.00 | 0.00 | 0.00 | 78 | 1013.9 |
| 20260903073114 | 79 | 15 | 2.0 | 3.0 | 0.00 | 0.00 | 0.00 | 78 | 1013.9 |
| 20260903072642 | 79 | 15 | 2.0 | 3.0 | 0.00 | 0.00 | 0.00 | 78 | 1013.8 |
| 20260903072141 | 79 | 15 | 1.0 | 2.0 | 0.00 | 0.00 | 0.00 | 78 | 1013.7 |
| 20260903071644 | 79 | 15 | 1.0 | 3.0 | 0.00 | 0.00 | 0.00 | 77 | 1013.7 |
| 20260903071142 | 80 | 15 | 1.0 | 4.0 | 0.00 | 0.00 | 0.00 | 77 | 1013.8 |
| 20260903070642 | 80 | 15 | 1.0 | 5.0 | 0.00 | 0.00 | 0.00 | 77 | 1013.8 |
| 20260903070145 | 80 | 15 | 2.0 | 5.0 | 0.00 | 0.00 | 0.00 | 77 | 1013.8 |
| 20260903065641 | 80 | 15 | 3.0 | 4.0 | 0.00 | 0.00 | 0.00 | 76 | 1013.9 |
| 20260903065143 | 80 | 16 | 2.0 | 5.0 | 0.00 | 0.00 | 0.00 | 76 | 1013.9 |
| 20260903064639 | 80 | 17 | 2.0 | 5.0 | 0.00 | 0.00 | 0.00 | 75 | 1014.0 |
| 20260903064139 | 81 | 18 | 4.0 | 5.0 | 0.00 | 0.00 | 0.00 | 75 | 1014.1 |
| 20260903063639 | 81 | 22 | 2.0 | 8.0 | 0.00 | 0.00 | 0.00 | 75 | 1014.1 |
| 20260903063138 | 81 | 20 | 3.0 | 8.0 | 0.00 | 0.00 | 0.00 | 74 | 1014.1 |
| 20260903062637 | 81 | 16 | 4.0 | 10.0 | 0.00 | 0.00 | 0.00 | 74 | 1014.1 |
| 20260903062138 | 81 | 24 | 3.0 | 12.0 | 0.00 | 0.00 | 0.00 | 74 | 1014.2 |
| 20260903061638 | 81 | 22 | 5.0 | 12.0 | 0.00 | 0.00 | 0.00 | 73 | 1014.2 |
| 20260903061137 | 81 | 22 | 2.0 | 9.0 | 0.00 | 0.00 | 0.00 | 73 | 1014.3 |
| 20260903060637 | 82 | 16 | 1.0 | 9.0 | 0.00 | 0.00 | 0.00 | 73 | 1014.3 |
| 20260903060139 | 82 | 27 | 5.0 | 10.0 | 0.00 | 0.00 | 0.00 | 72 | 1014.3 |
| 20260903055636 | 82 | 19 | 9.0 | 10.0 | 0.00 | 0.00 | 0.00 | 72 | 1014.4 |
| 20260903055136 | 82 | 22 | 4.0 | 12.0 | 0.00 | 0.00 | 0.00 | 71 | 1014.4 |
| 20260903054635 | 82 | 22 | 9.0 | 12.0 | 0.00 | 0.00 | 0.00 | 71 | 1014.4 |
| 20260903054134 | 82 | 19 | 5.0 | 14.0 | 0.00 | 0.00 | 0.00 | 71 | 1014.4 |
| 20260903053634 | 82 | 28 | 9.0 | 14.0 | 0.00 | 0.00 | 0.00 | 71 | 1014.3 |
| 20260903053134 | 83 | 25 | 11.0 | 14.0 | 0.00 | 0.00 | 0.00 | 71 | 1014.4 |
| 20260903052634 | 83 | 21 | 2.0 | 12.0 | 0.00 | 0.00 | 0.00 | 70 | 1014.4 |
| 20260903052136 | 83 | 22 | 5.0 | 10.0 | 0.00 | 0.00 | 0.00 | 70 | 1014.3 |
| 20260903051634 | 83 | 22 | 6.0 | 9.0 | 0.00 | 0.00 | 0.00 | 69 | 1014.3 |
| 20260903051134 | 83 | 23 | 2.0 | 10.0 | 0.00 | 0.00 | 0.00 | 68 | 1014.3 |
| 20260903050633 | 84 | 26 | 4.0 | 11.0 | 0.00 | 0.00 | 0.00 | 68 | 1014.3 |
| 20260903050134 | 84 | 27 | 6.0 | 11.0 | 0.00 | 0.00 | 0.00 | 67 | 1014.2 |
| 20260903045631 | 84 | 26 | 8.0 | 13.0 | 0.00 | 0.00 | 0.00 | 67 | 1014.3 |
| 20260903045132 | 84 | 24 | 8.0 | 13.0 | 0.00 | 0.00 | 0.00 | 67 | 1014.2 |
| 20260903044631 | 84 | 26 | 4.0 | 9.0 | 0.00 | 0.00 | 0.00 | 67 | 1014.3 |
| 20260903044132 | 84 | 24 | 5.0 | 9.0 | 0.00 | 0.00 | 0.00 | 66 | 1014.3 |
| 20260903043630 | 85 | 23 | 5.0 | 8.0 | 0.00 | 0.00 | 0.00 | 66 | 1014.2 |
| 20260903043131 | 85 | 0 | 0.0 | 9.0 | 0.00 | 0.00 | 0.00 | 66 | 1014.1 |
| 20260903042630 | 85 | 24 | 2.0 | 9.0 | 0.00 | 0.00 | 0.00 | 65 | 1014.2 |
| 20260903042130 | 85 | 25 | 3.0 | 9.0 | 0.00 | 0.00 | 0.00 | 65 | 1014.2 |
| 20260903041630 | 86 | 23 | 3.0 | 9.0 | 0.00 | 0.00 | 0.00 | 65 | 1014.3 |
| 20260903041130 | 86 | 28 | 2.0 | 12.0 | 0.00 | 0.00 | 0.00 | 65 | 1014.4 |
| 20260903040628 | 86 | 33 | 4.0 | 12.0 | 0.00 | 0.00 | 0.00 | 64 | 1014.3 |
| 20260903040129 | 86 | 32 | 6.0 | 12.0 | 0.00 | 0.00 | 0.00 | 64 | 1014.2 |
| 20260903035628 | 86 | 27 | 5.0 | 12.0 | 0.00 | 0.00 | 0.00 | 64 | 1014.1 |
| 20260903035127 | 86 | 27 | 5.0 | 10.0 | 0.00 | 0.00 | 0.00 | 63 | 1014.2 |
| 20260903034626 | 87 | 21 | 7.0 | 11.0 | 0.00 | 0.00 | 0.00 | 63 | 1014.2 |
| 20260903034127 | 87 | 28 | 5.0 | 13.0 | 0.00 | 0.00 | 0.00 | 63 | 1014.1 |
| 20260903033628 | 87 | 33 | 9.0 | 13.0 | 0.00 | 0.00 | 0.00 | 62 | 1014.1 |
| 20260903033127 | 87 | 28 | 11.0 | 12.0 | 0.00 | 0.00 | 0.00 | 62 | 1014.2 |
| 20260903032625 | 88 | 33 | 6.0 | 12.0 | 0.00 | 0.00 | 0.00 | 62 | 1014.3 |
| 20260903032127 | 88 | 32 | 6.0 | 12.0 | 0.00 | 0.00 | 0.00 | 61 | 1014.1 |
| 20260903031626 | 88 | 31 | 5.0 | 12.0 | 0.00 | 0.00 | 0.00 | 61 | 1014.2 |
| 20260903031125 | 88 | 34 | 5.0 | 12.0 | 0.00 | 0.00 | 0.00 | 60 | 1014.0 |
| 20260903030625 | 89 | 51 | 7.0 | 14.0 | 0.00 | 0.00 | 0.00 | 60 | 1014.0 |
| 20260903030125 | 89 | 36 | 6.0 | 14.0 | 0.00 | 0.00 | 0.00 | 59 | 1014.0 |
| 20260903025625 | 89 | 27 | 14.0 | 17.0 | 0.00 | 0.00 | 0.00 | 58 | 1013.9 |
| 20260903025125 | 89 | 26 | 11.0 | 17.0 | 0.00 | 0.00 | 0.00 | 58 | 1013.8 |
| 20260903024625 | 90 | 24 | 8.0 | 16.0 | 0.00 | 0.00 | 0.00 | 57 | 1013.7 |
| 20260903024124 | 90 | 23 | 10.0 | 14.0 | 0.00 | 0.00 | 0.00 | 56 | 1013.6 |
| 20260903023624 | 90 | 27 | 5.0 | 13.0 | 0.00 | 0.00 | 0.00 | 56 | 1013.6 |
| 20260903023123 | 90 | 25 | 8.0 | 14.0 | 0.00 | 0.00 | 0.00 | 55 | 1013.5 |
| 20260903022624 | 90 | 146 | 5.0 | 14.0 | 0.00 | 0.00 | 0.00 | 55 | 1013.4 |
| 20260903022123 | 91 | 142 | 6.0 | 13.0 | 0.00 | 0.00 | 0.00 | 55 | 1013.4 |
| 20260903021623 | 91 | 115 | 10.0 | 14.0 | 0.00 | 0.00 | 0.00 | 54 | 1013.3 |
| 20260903021123 | 91 | 138 | 11.0 | 14.0 | 0.00 | 0.00 | 0.00 | 54 | 1013.1 |
| 20260903020622 | 91 | 144 | 9.0 | 12.0 | 0.00 | 0.00 | 0.00 | 54 | 1013.1 |
| 20260903020123 | 92 | 140 | 8.0 | 12.0 | 0.00 | 0.00 | 0.00 | 54 | 1013.1 |
| 20260903015620 | 92 | 150 | 5.0 | 12.0 | 0.00 | 0.00 | 0.00 | 55 | 1013.1 |
| 20260903015120 | 92 | 115 | 4.0 | 11.0 | 0.00 | 0.00 | 0.00 | 55 | 1012.9 |
| 20260903014621 | 92 | 89 | 4.0 | 11.0 | 0.00 | 0.00 | 0.00 | 54 | 1012.9 |
| 20260903014119 | 92 | 134 | 9.0 | 11.0 | 0.00 | 0.00 | 0.00 | 54 | 1012.8 |
| 20260903013619 | 92 | 116 | 7.0 | 12.0 | 0.00 | 0.00 | 0.00 | 54 | 1012.9 |
| 20260903013120 | 92 | 150 | 4.0 | 12.0 | 0.00 | 0.00 | 0.00 | 54 | 1012.7 |
| 20260903012619 | 92 | 123 | 2.0 | 12.0 | 0.00 | 0.00 | 0.00 | 54 | 1012.7 |
| 20260903012119 | 92 | 119 | 5.0 | 13.0 | 0.00 | 0.00 | 0.00 | 54 | 1012.5 |
| 20260903011619 | 92 | 121 | 8.0 | 13.0 | 0.00 | 0.00 | 0.00 | 54 | 1012.6 |
| 20260903011118 | 92 | 29 | 8.0 | 10.0 | 0.00 | 0.00 | 0.00 | 54 | 1012.5 |
| 20260903010617 | 92 | 33 | 4.0 | 10.0 | 0.00 | 0.00 | 0.00 | 54 | 1012.5 |
| 20260903010119 | 92 | 33 | 4.0 | 9.0 | 0.00 | 0.00 | 0.00 | 54 | 1012.5 |
| 20260903005617 | 93 | 36 | 4.0 | 15.0 | 0.00 | 0.00 | 0.00 | 53 | 1012.4 |
| 20260903005119 | 93 | 121 | 7.0 | 15.0 | 0.00 | 0.00 | 0.00 | 53 | 1012.4 |
| 20260903004616 | 93 | 127 | 8.0 | 14.0 | 0.00 | 0.00 | 0.00 | 53 | 1012.4 |
| 20260903004116 | 93 | 134 | 4.0 | 14.0 | 0.00 | 0.00 | 0.00 | 53 | 1012.5 |
| 20260903003615 | 94 | 95 | 1.0 | 13.0 | 0.00 | 0.00 | 0.00 | 53 | 1012.5 |
| 20260903003116 | 94 | 119 | 11.0 | 18.0 | 0.00 | 0.00 | 0.00 | 52 | 1012.5 |
| 20260903002615 | 94 | 128 | 4.0 | 18.0 | 0.00 | 0.00 | 0.00 | 52 | 1012.4 |
| 20260903002115 | 95 | 153 | 10.0 | 18.0 | 0.00 | 0.00 | 0.00 | 51 | 1012.3 |
| 20260903001616 | 96 | 126 | 4.0 | 18.0 | 0.00 | 0.00 | 0.00 | 49 | 1012.3 |
| 20260903001113 | 96 | 140 | 11.0 | 18.0 | 0.00 | 0.00 | 0.00 | 47 | 1012.3 |
| 20260903000613 | 97 | 86 | 10.0 | 11.0 | 0.00 | 0.00 | 0.00 | 46 | 1012.2 |
| 20260903000114 | 97 | 115 | 4.0 | 11.0 | 0.00 | 0.00 | 0.00 | 45 | 1012.3 |
| 20260902235613 | 97 | 136 | 5.0 | 13.0 | 0.00 | 0.00 | 0.00 | 44 | 1012.3 |
| 20260902235112 | 97 | 120 | 3.0 | 13.0 | 0.00 | 0.00 | 0.00 | 44 | 1012.3 |
| 20260902234614 | 97 | 62 | 5.0 | 13.0 | 0.00 | 0.00 | 0.00 | 44 | 1012.1 |
| 20260902234112 | 97 | 61 | 4.0 | 15.0 | 0.00 | 0.00 | 0.00 | 44 | 1012.1 |
| 20260902233612 | 97 | 104 | 6.0 | 15.0 | 0.00 | 0.00 | 0.00 | 44 | 1012.2 |
| 20260902233111 | 97 | 100 | 13.0 | 13.0 | 0.00 | 0.00 | 0.00 | 44 | 1012.2 |
| 20260902232613 | 98 | 77 | 10.0 | 14.0 | 0.00 | 0.00 | 0.00 | 43 | 1012.1 |
| 20260902232113 | 98 | 136 | 3.0 | 14.0 | 0.00 | 0.00 | 0.00 | 44 | 1012.2 |
| 20260902231610 | 97 | 106 | 6.0 | 12.0 | 0.00 | 0.00 | 0.00 | 43 | 1012.1 |